SCP
0 0 0 0 0 0 0 0 0 0 0 0 0 0 0 0 0 0 0 0 0 0 0 0 0 0 0 0 0 0 0 0 0 0 0 0 0 0 0 0 0 0 0
0 0 0 0 0 0 0 0 0 0 0 0 0 0 0 0 0 0 0 0 0 0 0 0 0 0 0 0 0 0 0 0 0 0 0 0 0 0 0 0 0 0 0
0 0 0 0 0 0 0 0 0 0 0 0 0 0 0 0 0 0 0 0 0 0 0 0 0 0 0 0 0 0 0 0 0 0 0 0 0 0 0 0 0 0 0
0 0 0 0 0 0 0 0 0 0 0 0 0 0 0 0 0 0 0 0 0 0 0 0 0 0 0 0 0 0 0 0 0 0 0 0 0 0 0 0 0 0 0
0 0 0 0 0 0 0 0 0 0 0 0 0 0 0 0 0 0 0 0 0 0 0 0 0 0 0 0 0 0 0 0 0 0 0 0 0 0 0 0 0 0 0
-0 0 0 0 0 0 0 0 0 0 0 0 0 0 0 0 0 0 0 0 0 0 0 0 0 0 0 0 0 0 0 0 0 0 0 0 0 0 0 0 0 0 0
-0 -0 0 0 0 0 0 0 0 0 0 0 0 0 0 0 0 0 0 0 0 0 0 0 0 0 0 0 0 0 0 0 0 0 0 0 0 0 0 0 0 0 0
-0 -0 -0 0 0 0 0 0 0 0 0 0 0 0 0 0 0 0 0 0 0 0 0 0 0 0 0 0 0 0 0 0 0 0 0 0 0 0 0 0 0 0 0
0 0 0 0 0 0 0 0 0 0 0 0 0 0 0 0 0 0 0 0 0 0 0 0 0 0 0 0 0 0 0 0 0 0 0 0 0 0 0 0 0 0 0
0 0 0 0 0 0 0 0 0 0 0 0 0 0 0 0 0 0 0 0 0 0 0 0 0 0 0 0 0 0 0 0 0 0 0 0 0 0 0 0 0 0 0
0 0 0 0 0 0 0 0 0 0 0 0 0 0 0 0 0 0 0 0 0 0 0 0 0 0 0 0 0 0 0 0 0 0 0 0 0 0 0 0 0 0 0
0 0 0 0 0 0 0 0 0 0 0 0 0 0 0 0 0 0 0 0 0 0 0 0 0 0 0 0 0 0 0 0 0 0 0 0 0 0 0 0 0 0 0
0 0 0 0 0 0 0 0 0 0 0 0 0 0 0 0 0 0 0 0 0 0 0 0 0 0 0 0 0 0 0 0 0 0 0 0 0 0 0 0 0 0 0
0 0 0 0 0 0 0 0 0 0 0 0 0 0 0 0 0 0 0 0 0 0 0 0 0 0 0 0 0 0 0 0 0 0 0 0 0 0 0 0 0 0 0
0 0 0 0 0 0 0 0 0 0 0 0 0 0 0 0 0 0 0 0 0 0 0 0 0 0 0 0 0 0 0 0 0 0 0 0 0 0 0 0 0 0 0
0 0 0 0 0 0 0 0 0 0 0 0 0 0 0 0 0 0 0 0 0 0 0 0 0 0 0 0 0 0 0 0 0 0 0 0 0 0 0 0 0 0 0
0 0 0 0 0 0 0 0 0 0 0 0 0 0 0 0 0 0 0 0 0 0 0 0 0 0 0 0 0 0 0 0 0 0 0 0 0 0 0 0 0 0 0
0 0 0 0 0 0 0 0 0 0 0 0 0 0 0 0 0 0 0 0 0 0 0 0 0 0 0 0 0 0 0 0 0 0 0 0 0 0 0 0 0 0 0
0 0 0 0 0 0 0 0 0 0 0 0 0 0 0 0 0 0 0 0 0 0 0 0 0 0 0 0 0 0 0 0 0 0 0 0 0 0 0 0 0 0 0
0 0 0 0 0 0 0 0 0 0 0 0 0 0 0 0 0 0 0 0 0 0 0 0 0 0 0 0 0 0 0 0 0 0 0 0 0 0 0 0 0 0 0
0 0 0 0 0 0 0 0 0 0 0 0 0 0 0 0 0 0 0 0 0 0 0 0 0 0 0 0 0 0 0 0 0 0 0 0 0 0 0 0 0 0 0
0 0 0 0 0 0 0 0 0 0 0 0 0 0 0 0 0 0 0 0 0 0 0 0 0 0 0 0 0 0 0 0 0 0 0 0 0 0 0 0 0 0 0
0 0 0 0 0 0 0 0 0 0 0 0 0 0 0 0 0 0 0 0 0 0 0 0 0 0 0 0 0 0 0 0 0 0 0 0 0 0 0 0 0 0 0
0 0 0 0 0 0 0 0 0 0 0 0 0 0 0 0 0 0 0 0 0 0 0 0 0 0 0 0 0 0 0 0 0 0 0 0 0 0 0 0 0 0 0
0 0 0 0 0 0 0 0 0 0 0 0 0 0 0 0 0 0 0 0 0 0 0 0 0 0 0 0 0 0 0 0 0 0 0 0 0 0 0 0 0 0 0
0 0 0 0 0 0 0 0 0 0 0 0 0 0 0 0 0 0 0 0 0 0 0 0 0 0 0 0 0 0 0 0 0 0 0 0 0 0 0 0 0 0 0
Wind_Speed
5 6 6 7 7 8 9 10 9 8 9 10 11 12 13 13 14 14 14 12 14 13 12 13 14 11 9 8 7 8 8 8 11 6 3 3 3 3 2 2 2 2 2
5 5 6 6 6 7 8 9 8 9 8 9 9 10 11 12 13 14 15 14 15 15 14 13 13 10 12 9 8 9 8 8 8 9 4 3 3 2 2 2 1 1 2
4 4 5 5 6 7 8 7 7 7 7 7 8 10 10 11 12 12 13 13 13 13 13 13 12 11 12 9 9 9 7 7 7 7 5 2 2 2 2 1 2 1 2
3 4 5 6 6 6 6 6 6 7 7 8 9 9 9 10 11 11 11 11 11 11 11 11 11 11 11 10 9 9 7 7 6 6 5 2 2 2 2 2 2 2 2
4 5 6 5 5 5 5 6 6 6 7 7 8 8 9 8 9 10 10 10 10 10 9 9 9 10 10 8 7 6 7 6 5 5 4 3 3 3 3 3 2 1 1
4 5 5 4 4 5 5 5 5 6 6 6 7 8 8 7 9 12 10 9 9 9 9 7 7 7 8 8 8 7 7 7 6 5 4 5 4 4 3 3 3 2 2
4 5 4 5 5 5 5 5 6 6 5 6 6 7 8 8 9 11 12 9 8 8 8 7 5 5 7 6 6 6 5 5 7 6 6 5 4 5 5 4 3 3 2
5 5 4 5 6 5 5 5 6 5 5 6 6 6 6 6 9 10 11 8 6 6 7 7 7 6 6 7 5 4 3 2 3 3 4 3 3 4 5 5 4 3 2
5 5 5 5 6 6 6 6 5 5 6 5 4 5 5 5 8 9 9 6 5 5 4 5 6 6 8 10 7 6 4 2 4 6 6 6 7 7 6 5 4 3 1
6 7 6 6 6 7 7 6 4 4 5 4 4 4 5 5 6 8 9 5 5 4 3 3 5 7 8 10 8 7 7 5 5 5 6 7 6 6 6 4 4 3 2
7 7 7 6 6 7 6 4 4 3 4 4 4 4 4 4 5 8 9 6 6 5 4 3 3 8 9 9 8 6 7 8 6 6 5 5 4 4 3 3 2 2 2
6 7 7 6 5 4 5 4 3 3 4 4 4 4 3 3 4 6 8 8 7 5 5 4 4 9 9 9 6 8 11 9 6 5 4 4 4 3 3 3 4 3 3
6 7 7 6 5 4 5 5 4 4 4 4 4 5 4 2 3 5 7 8 8 4 4 7 9 10 9 7 8 11 8 5 6 5 5 3 3 4 4 3 4 4 5
7 7 6 6 5 4 4 4 4 4 5 5 5 5 4 3 3 3 3 4 5 5 5 7 10 11 8 7 7 6 3 4 4 5 5 4 4 4 3 3 2 2 2
8 7 6 5 5 5 4 4 5 5 6 6 5 5 5 5 5 6 5 4 4 5 6 5 4 4 4 4 3 3 3 3 4 4 4 4 4 4 3 2 2 2 2
7 6 5 5 4 4 4 4 4 5 4 5 5 4 4 4 6 8 8 8 10 12 7 6 6 6 5 5 5 4 3 3 3 4 4 4 4 4 3 2 2 2 2
7 7 5 5 5 4 4 4 4 2 3 4 4 5 5 6 8 9 9 10 11 12 5 5 6 6 6 5 5 4 3 3 3 4 4 4 4 4 3 3 2 2 2
7 7 6 5 5 4 4 4 4 4 3 2 2 4 5 6 8 9 10 9 7 7 4 5 6 6 6 6 5 4 4 4 4 4 4 4 4 3 3 3 3 2 2
7 5 4 4 4 4 4 3 3 4 3 2 1 1 3 5 6 8 9 4 5 4 3 4 4 5 5 5 5 5 5 5 5 4 4 4 4 4 3 3 2 2 2
6 6 5 4 4 4 3 3 3 3 3 2 2 2 1 3 3 4 4 3 4 4 4 4 4 4 5 5 5 5 5 5 5 4 4 4 4 3 4 4 3 3 2
6 5 5 4 3 3 3 3 3 3 3 3 2 1 3 3 3 3 3 3 3 3 4 4 4 4 4 5 5 6 6 5 5 4 4 4 4 3 3 3 3 2 2
5 5 4 4 3 3 3 3 3 3 3 3 2 1 3 2 2 2 2 2 2 2 3 4 4 4 4 4 5 6 5 5 5 5 4 4 4 3 3 3 3 3 2
5 5 5 4 3 3 3 2 2 2 2 1 1 1 1 2 2 2 2 2 3 3 3 4 4 4 3 3 3 4 5 5 5 5 5 5 4 4 4 4 4 3 3
5 5 4 4 3 3 2 2 2 1 1 1 1 1 1 2 2 3 3 3 3 4 3 4 4 6 6 4 3 3 3 3 4 4 6 6 5 4 4 4 4 4 3
5 4 4 4 3 3 3 2 2 1 1 1 1 1 2 2 3 3 3 3 4 4 5 4 4 5 6 6 4 4 5 5 5 4 4 5 5 5 5 5 4 4 3
5 4 4 4 3 3 3 2 2 1 1 0 1 2 2 2 3 3 3 3 4 4 4 3 4 5 5 5 5 5 5 5 5 5 4 5 5 5 5 4 5 4 4
Wind_Direction
243 242 241 237 230 226 225 227 227 225 217 214 211 208 209 210 210 214 218 216 221 224 222 224 228 224 225 225 224 226 230 232 253 255 219 213 204 206 205 207 215 221 238
251 246 245 242 235 231 231 231 228 226 222 218 214 213 213 212 211 213 218 218 221 224 223 223 227 223 226 224 223 226 229 227 240 256 243 210 207 194 178 189 204 204 229
265 257 254 249 242 238 238 235 229 226 225 221 217 218 218 216 215 215 218 219 221 224 223 224 225 222 226 224 223 226 227 227 230 243 247 207 185 149 158 195 205 203 230
268 262 258 254 249 247 246 240 234 228 225 224 223 224 223 220 219 217 218 220 221 222 222 223 223 222 224 222 223 225 223 224 225 234 240 215 186 159 161 193 226 210 225
264 263 261 262 261 258 253 247 240 234 232 228 226 225 223 222 220 216 217 219 221 222 220 220 220 219 220 218 217 217 214 221 219 224 231 215 194 174 195 184 200 194 215
265 263 268 268 265 261 257 254 247 241 237 233 228 223 223 222 216 213 213 217 217 218 219 212 208 206 208 207 209 207 205 212 216 216 219 219 212 192 174 167 161 161 233
275 274 276 275 267 264 265 260 252 246 241 238 235 225 226 224 211 209 211 216 218 218 213 206 204 198 194 195 192 195 210 216 213 211 216 216 197 185 168 168 174 183 201
282 283 287 284 278 275 268 259 257 252 242 238 235 232 229 225 208 205 204 212 217 216 208 201 196 193 187 179 172 171 176 192 202 203 202 195 173 160 165 165 160 141 99
292 288 284 277 276 273 264 260 260 257 252 244 234 228 230 232 209 201 193 205 208 210 204 195 190 192 185 175 168 167 160 144 96 113 115 111 114 123 131 125 130 133 162
293 287 283 274 268 264 260 261 260 252 253 248 244 232 227 233 212 200 191 196 200 199 187 184 187 186 181 176 176 172 175 170 140 112 98 93 98 108 116 133 152 152 147
295 292 288 278 269 267 268 262 255 249 248 245 246 248 235 228 215 203 194 200 196 190 189 190 181 175 175 175 173 175 173 153 144 135 124 113 102 95 90 88 95 138 152
297 293 289 284 277 271 264 263 250 235 239 241 242 253 250 230 216 209 200 198 188 187 190 180 167 162 161 159 160 152 146 139 135 132 132 132 126 115 99 91 84 73 72
296 290 288 286 279 269 258 254 247 232 233 237 232 239 246 232 215 204 196 187 181 181 170 161 155 150 145 143 143 142 141 143 143 144 149 145 132 129 121 104 86 81 66
289 290 289 284 281 270 255 245 239 231 228 228 229 232 235 228 216 201 190 175 163 154 144 141 141 139 132 128 132 134 138 146 148 149 143 134 130 132 134 130 127 123 99
289 287 285 276 272 272 259 247 244 241 228 224 224 214 216 227 214 192 185 182 171 159 140 133 135 140 140 140 132 128 129 132 132 132 136 138 139 137 133 124 128 136 133
290 289 284 280 275 269 268 273 251 246 247 235 228 220 225 212 183 183 182 174 165 158 151 162 164 164 165 163 158 151 145 146 144 138 139 143 146 143 135 127 124 135 139
283 286 285 280 275 270 265 261 274 278 231 224 216 211 210 189 179 178 174 169 166 163 167 171 171 169 166 163 162 161 157 147 137 137 138 140 141 142 142 142 140 136 139
287 283 278 276 273 267 262 261 258 259 262 258 223 203 189 184 180 174 168 159 171 175 179 175 171 167 163 160 159 153 145 139 136 137 137 139 141 144 147 153 157 156 153
289 286 284 282 279 274 269 264 261 256 255 260 265 206 174 172 170 169 165 172 173 175 173 171 164 159 156 152 151 148 145 145 143 141 143 145 147 146 150 155 156 152 150
291 290 287 281 278 275 271 265 260 256 251 243 239 232 174 166 175 175 175 168 166 169 166 162 156 151 149 147 145 143 142 143 145 145 148 148 149 151 154 158 163 165 169
302 300 295 284 276 273 269 263 261 259 256 254 252 215 168 182 186 176 171 168 166 163 156 148 142 139 140 141 142 144 146 149 152 153 153 154 154 154 155 155 158 159 154
304 302 299 292 286 279 271 265 258 252 250 248 254 200 165 156 161 156 150 142 132 128 133 134 132 131 134 140 145 146 149 151 154 153 151 150 150 150 150 149 151 150 146
310 308 305 302 295 289 282 275 266 257 253 244 211 171 161 157 146 134 125 113 105 101 104 114 120 116 107 107 120 140 152 159 161 157 153 152 152 152 152 152 152 152 154
318 315 313 312 313 308 301 293 279 259 234 213 191 163 153 144 130 118 111 104 100 97 99 104 111 119 116 109 106 108 117 129 136 147 152 154 153 151 149 149 152 156 157
326 324 325 324 322 321 320 314 309 295 256 181 150 127 115 112 107 102 96 95 95 93 90 93 102 110 116 115 112 112 120 121 129 140 145 147 150 152 152 153 156 156 158
336 337 335 333 332 334 332 328 331 339 345 46 97 107 112 112 109 107 105 102 100 97 94 95 104 110 116 113 116 119 123 127 129 137 143 145 148 152 152 153 156 157 157